NEWFOUND LAKE DAM: From 06/04/2019 02:00 to 06/18/2019 18:00

Date STAGE [FT] FLOW [CFS] LAKE ELEVATION [FT] PRECIPITATION INCREMENT [IN] AIR TEMPERATURE [DEGF]
06/18/2019 13:00 -- -- -- 0.00 --
06/18/2019 12:00 4.53 -- 587.37 0.00 67.3
06/18/2019 11:00 4.53 41.6 587.37 0.00 64.9
06/18/2019 10:00 4.53 41.6 587.37 0.00 62.7
06/18/2019 09:00 4.53 41.6 587.36 0.00 60.4
06/18/2019 08:00 4.53 41.6 587.36 0.00 58.3
06/18/2019 07:00 4.53 41.6 587.36 0.00 55.8
06/18/2019 06:00 4.53 41.6 587.36 0.00 55.6
06/18/2019 05:00 4.53 41.6 587.36 0.00 55.1
06/18/2019 04:00 4.53 41.6 587.36 0.00 55.0
06/18/2019 03:00 4.53 41.6 587.35 0.00 54.6
06/18/2019 02:00 4.53 41.6 587.36 0.00 55.3
06/18/2019 01:00 4.53 41.6 587.36 0.00 56.1
06/18/2019 00:00 4.53 41.6 587.36 0.00 57.3
06/17/2019 23:00 4.53 41.6 587.36 0.00 59.3
06/17/2019 22:00 4.53 41.6 587.35 0.00 62.1
06/17/2019 21:00 4.53 41.6 587.35 0.00 64.9
06/17/2019 20:00 4.53 41.6 587.35 0.00 71.8
06/17/2019 19:00 4.53 41.6 587.36 0.00 78.3
06/17/2019 18:00 4.53 41.6 587.32 0.00 77.6
06/17/2019 17:00 4.53 41.6 587.36 0.00 76.9
06/17/2019 16:00 4.52 40.4 587.35 0.00 76.1
06/17/2019 15:00 4.52 40.4 587.34 0.00 73.8
06/17/2019 14:00 4.52 40.4 587.34 0.00 72.0
06/17/2019 13:00 4.52 40.4 587.35 0.00 69.9
06/17/2019 12:00 4.52 40.4 587.33 0.00 68.0
06/17/2019 11:00 4.52 40.4 587.32 0.00 66.5
06/17/2019 10:00 4.52 40.4 587.33 0.00 63.0
06/17/2019 09:00 4.52 40.4 587.30 0.00 58.3
06/17/2019 08:00 4.52 40.4 587.29 0.00 55.4
06/17/2019 07:00 4.52 40.4 587.31 0.00 53.2
06/17/2019 06:00 4.52 40.4 587.31 0.00 52.2
06/17/2019 05:00 4.52 40.4 587.30 0.00 53.7
06/17/2019 04:00 4.52 40.4 587.29 0.00 55.9
06/17/2019 03:00 4.52 40.4 587.31 0.00 58.5
06/17/2019 02:00 4.52 40.4 587.30 0.00 60.9
06/17/2019 01:00 4.52 40.4 587.28 0.00 61.8
06/17/2019 00:00 4.52 40.4 587.29 0.00 61.7
06/16/2019 23:00 4.52 40.4 587.29 0.01 62.0
06/16/2019 22:00 4.52 40.4 587.27 0.00 62.4
06/16/2019 21:00 4.52 40.4 587.27 0.10 62.6
06/16/2019 20:00 4.52 40.4 587.27 0.23 62.7
06/16/2019 19:00 4.51 39.3 587.25 0.03 65.1
06/16/2019 18:00 4.51 39.3 587.24 0.00 65.8
06/16/2019 17:00 4.51 39.3 587.23 0.01 66.4
06/16/2019 16:00 4.51 39.3 587.21 0.06 65.7
06/16/2019 15:00 4.51 39.3 587.22 0.03 66.2
06/16/2019 14:00 4.51 39.3 587.23 0.02 66.1
06/16/2019 13:00 4.51 39.3 587.22 0.00 65.5
06/16/2019 12:00 4.51 39.3 587.21 0.00 66.3
06/16/2019 11:00 4.51 39.3 587.23 0.00 66.9
06/16/2019 10:00 4.51 39.3 587.21 0.00 67.9
06/16/2019 09:00 4.51 39.3 587.19 0.00 67.4
06/16/2019 08:00 4.51 39.3 587.22 0.00 65.8
06/16/2019 07:00 4.51 39.3 587.22 0.00 63.7
06/16/2019 06:00 4.51 39.3 587.21 0.00 63.0
06/16/2019 05:00 4.51 39.3 587.23 0.00 63.4
06/16/2019 04:00 4.51 39.3 587.21 0.00 64.8
06/16/2019 03:00 4.51 39.3 587.21 0.00 65.5
06/16/2019 02:00 4.51 39.3 587.23 0.00 67.3
06/16/2019 01:00 4.51 39.3 587.18 0.00 69.1
06/16/2019 00:00 4.51 39.3 587.16 0.00 68.8
06/15/2019 23:00 4.51 39.3 587.22 0.00 65.7
06/15/2019 22:00 4.51 39.3 587.20 0.00 66.3
06/15/2019 21:00 4.51 39.3 587.20 0.00 70.4
06/15/2019 20:00 4.51 39.3 587.16 0.00 72.0
06/15/2019 19:00 4.51 39.3 587.21 0.00 73.8
06/15/2019 18:00 4.51 39.3 587.17 0.00 78.4
06/15/2019 17:00 4.51 39.3 587.13 0.00 78.9
06/15/2019 16:00 4.51 39.3 587.18 0.00 77.3
06/15/2019 15:00 4.51 39.3 587.17 0.00 71.1
06/15/2019 14:00 4.51 39.3 587.20 0.00 74.6
06/15/2019 13:00 4.51 39.3 587.17 0.00 71.5
06/15/2019 12:00 4.51 39.3 587.19 0.00 69.4
06/15/2019 11:00 4.51 39.3 587.19 0.00 61.7
06/15/2019 10:00 4.51 39.3 587.16 0.00 61.5
06/15/2019 09:00 4.78 76.0 587.17 0.00 55.9
06/15/2019 08:00 4.78 76.0 587.30 0.00 51.7
06/15/2019 07:00 4.78 76.0 587.17 0.00 49.6
06/15/2019 06:00 4.78 76.0 587.16 0.00 48.9
06/15/2019 05:00 4.78 76.0 587.19 0.00 50.3
06/15/2019 04:00 4.78 76.0 587.16 0.00 50.4
06/15/2019 03:00 4.78 76.0 587.17 0.00 50.1
06/15/2019 02:00 4.78 76.0 587.16 0.00 50.2
06/15/2019 01:00 4.78 76.0 587.18 0.00 51.8
06/15/2019 00:00 4.78 76.0 587.14 0.00 54.0
06/14/2019 23:00 4.77 74.4 587.21 0.00 56.3
06/14/2019 22:00 4.77 74.4 587.17 0.00 57.4
06/14/2019 21:00 4.77 74.4 587.19 0.00 58.8
06/14/2019 20:00 4.78 76.0 587.20 0.00 60.1
06/14/2019 19:00 4.78 76.0 587.20 0.00 61.9
06/14/2019 18:00 4.78 76.0 587.18 0.01 63.6
06/14/2019 17:00 4.78 76.0 587.16 0.00 63.4
06/14/2019 16:00 4.77 74.4 587.17 0.01 61.1
06/14/2019 15:00 4.77 74.4 587.17 0.00 66.4
06/14/2019 14:00 5.18 148.9 587.15 0.00 66.1
06/14/2019 13:00 5.18 148.9 587.14 0.00 63.9
06/14/2019 12:00 5.18 148.9 587.14 0.00 61.1
06/14/2019 11:00 5.18 148.9 587.15 0.00 57.5
06/14/2019 10:00 5.18 148.9 587.15 0.00 53.0
06/14/2019 09:00 5.18 148.9 587.13 0.00 51.0
06/14/2019 08:00 5.19 150.9 587.30 0.00 50.2
06/14/2019 07:00 5.18 148.9 587.14 0.00 49.4
06/14/2019 06:00 5.18 148.9 587.17 0.00 49.0
06/14/2019 05:00 5.18 148.9 587.14 0.00 49.0
06/14/2019 04:00 5.18 148.9 587.12 0.00 49.0
06/14/2019 03:00 5.18 148.9 587.16 0.00 48.7
06/14/2019 02:00 5.18 148.9 587.16 0.00 47.8
06/14/2019 01:00 5.18 148.9 587.17 0.00 48.2
06/14/2019 00:00 5.18 148.9 587.16 0.00 49.1
06/13/2019 23:00 5.18 148.9 587.15 0.00 50.7
06/13/2019 22:00 5.18 148.9 587.15 0.00 51.0
06/13/2019 21:00 5.19 150.9 587.14 0.00 51.4
06/13/2019 20:00 5.17 146.9 587.14 0.00 51.0
06/13/2019 19:00 5.18 148.9 587.15 0.01 51.3
06/13/2019 18:00 5.18 148.9 587.14 0.01 51.2
06/13/2019 17:00 5.18 148.9 587.14 0.05 50.6
06/13/2019 16:00 5.18 148.9 587.15 0.02 51.1
06/13/2019 15:00 5.18 148.9 587.10 0.05 50.3
06/13/2019 14:00 5.18 148.9 587.09 0.01 54.2
06/13/2019 13:00 5.18 148.9 587.13 0.00 56.4
06/13/2019 12:00 5.18 148.9 587.14 0.00 57.6
06/13/2019 11:00 5.17 146.9 587.12 0.00 59.0
06/13/2019 10:00 6.32 470.1 587.06 0.00 57.6
06/13/2019 09:00 6.19 425.6 587.07 0.00 56.0
06/13/2019 08:00 6.29 459.5 587.06 0.00 54.8
06/13/2019 07:00 6.28 456.1 587.08 0.00 53.4
06/13/2019 06:00 6.25 445.9 587.09 0.00 52.9
06/13/2019 05:00 6.28 456.1 587.09 0.00 53.0
06/13/2019 04:00 6.30 463.0 587.09 0.00 53.3
06/13/2019 03:00 6.28 456.1 587.14 0.00 53.3
06/13/2019 02:00 6.36 484.5 587.12 0.00 55.0
06/13/2019 01:00 6.31 466.5 587.13 0.00 56.2
06/13/2019 00:00 6.33 473.7 587.15 0.00 57.6
06/12/2019 23:00 6.30 463.0 587.15 0.00 57.8
06/12/2019 22:00 6.19 425.6 587.18 0.00 60.2
06/12/2019 21:00 6.24 442.5 587.18 0.00 64.8
06/12/2019 20:00 6.30 463.0 587.19 0.00 71.0
06/12/2019 19:00 6.41 502.6 587.21 0.00 76.6
06/12/2019 18:00 6.33 473.7 587.22 0.00 76.6
06/12/2019 17:00 6.22 435.7 587.22 0.00 75.5
06/12/2019 16:00 6.29 459.5 587.25 0.00 74.7
06/12/2019 15:00 6.33 473.7 587.24 0.00 72.9
06/12/2019 14:00 6.31 466.5 587.26 0.00 70.9
06/12/2019 13:00 6.33 473.7 587.27 0.00 69.5
06/12/2019 12:00 6.35 480.8 587.25 0.00 67.0
06/12/2019 11:00 6.56 557.7 587.25 0.00 65.2
06/12/2019 10:00 6.51 538.7 587.26 0.00 62.5
06/12/2019 09:00 6.51 538.7 587.24 0.00 59.7
06/12/2019 08:00 6.51 538.7 587.25 0.00 49.7
06/12/2019 07:00 6.48 527.7 587.28 0.00 47.1
06/12/2019 06:00 6.52 542.5 587.28 0.00 45.9
06/12/2019 05:00 6.53 546.3 587.29 0.00 46.7
06/12/2019 04:00 6.61 576.8 587.30 0.00 47.2
06/12/2019 03:00 6.52 542.5 587.33 0.00 48.8
06/12/2019 02:00 6.55 553.9 587.33 0.00 49.8
06/12/2019 01:00 6.55 553.9 587.34 0.00 52.0
06/12/2019 00:00 6.59 569.1 587.38 0.00 56.9
06/11/2019 23:00 6.51 538.7 587.40 0.00 59.2
06/11/2019 22:00 6.50 535.0 587.38 0.00 61.4
06/11/2019 21:00 6.60 573.0 587.41 0.00 63.0
06/11/2019 20:00 6.61 576.8 587.43 0.00 65.1
06/11/2019 19:00 6.53 546.3 587.39 0.00 66.2
06/11/2019 18:00 6.60 573.0 587.47 0.00 66.4
06/11/2019 17:00 6.54 550.1 587.47 0.00 68.1
06/11/2019 16:00 6.63 584.6 587.43 0.00 67.9
06/11/2019 15:00 6.60 573.0 587.44 0.00 68.0
06/11/2019 14:00 6.61 576.8 587.48 0.00 68.4
06/11/2019 13:00 6.57 561.5 587.42 0.00 65.0
06/11/2019 12:00 6.64 588.5 587.40 0.00 65.0
06/11/2019 11:00 5.62 253.3 587.53 0.01 63.3
06/11/2019 10:00 5.63 256.0 587.51 0.02 63.2
06/11/2019 09:00 5.65 261.3 587.51 0.02 62.8
06/11/2019 08:00 5.64 258.7 587.51 0.13 62.4
06/11/2019 07:00 5.64 258.7 587.51 0.23 62.6
06/11/2019 06:00 5.67 266.8 587.47 0.06 62.1
06/11/2019 05:00 5.64 258.7 587.47 0.13 62.8
06/11/2019 04:00 5.64 258.7 587.45 0.16 63.1
06/11/2019 03:00 5.65 261.3 587.44 0.14 63.0
06/11/2019 02:00 5.64 258.7 587.43 0.15 62.5
06/11/2019 01:00 5.64 258.7 587.42 0.00 66.1
06/11/2019 00:00 5.64 258.7 587.42 0.00 66.9
06/10/2019 23:00 5.63 256.0 587.42 0.00 67.4
06/10/2019 22:00 5.64 258.7 587.42 0.00 67.9
06/10/2019 21:00 5.64 258.7 587.44 0.00 70.9
06/10/2019 20:00 5.64 258.7 587.43 0.00 73.3
06/10/2019 19:00 5.63 256.0 587.42 0.00 77.2
06/10/2019 18:00 5.66 264.1 587.45 0.00 77.8
06/10/2019 17:00 5.61 250.6 587.45 0.00 79.5
06/10/2019 16:00 5.64 258.7 587.46 0.00 78.8
06/10/2019 15:00 5.65 261.3 587.46 0.00 77.5
06/10/2019 14:00 5.64 258.7 587.47 0.00 76.0
06/10/2019 13:00 5.62 253.3 587.47 0.00 77.1
06/10/2019 12:00 5.27 168.3 587.48 0.00 76.0
06/10/2019 11:00 5.27 168.3 587.49 0.00 72.2
06/10/2019 10:00 5.27 168.3 587.50 0.00 67.6
06/10/2019 09:00 5.27 168.3 587.49 0.00 61.0
06/10/2019 08:00 5.27 168.3 587.49 0.00 55.9
06/10/2019 07:00 5.27 168.3 587.50 0.00 52.4
06/10/2019 06:00 5.27 168.3 587.49 0.00 51.7
06/10/2019 05:00 5.27 168.3 587.49 0.00 52.0
06/10/2019 04:00 5.27 168.3 587.50 0.00 53.0
06/10/2019 03:00 5.27 168.3 587.50 0.00 54.6
06/10/2019 02:00 5.27 168.3 587.49 0.00 55.8
06/10/2019 01:00 5.27 168.3 587.50 0.00 57.2
06/10/2019 00:00 5.28 170.5 587.50 0.00 59.2
06/09/2019 23:00 5.27 168.3 587.50 0.00 61.2
06/09/2019 22:00 5.27 168.3 587.50 0.00 63.8
06/09/2019 21:00 5.28 170.5 587.51 0.00 68.1
06/09/2019 20:00 5.28 170.5 587.50 0.00 74.4
06/09/2019 19:00 5.28 170.5 587.51 0.00 80.4
06/09/2019 18:00 5.27 168.3 587.51 0.00 81.0
06/09/2019 17:00 5.27 168.3 587.51 0.00 80.3
06/09/2019 16:00 5.27 168.3 587.52 0.00 79.5
06/09/2019 15:00 5.27 168.3 587.52 0.00 77.8
06/09/2019 14:00 5.27 168.3 587.52 0.00 76.7
06/09/2019 13:00 5.27 168.3 587.52 0.00 73.7
06/09/2019 12:00 5.27 168.3 587.51 0.00 71.4
06/09/2019 11:00 5.27 168.3 587.52 0.00 68.1
06/09/2019 10:00 5.28 170.5 587.51 0.00 61.0
06/09/2019 09:00 5.27 168.3 587.51 0.00 55.3
06/09/2019 08:00 5.27 168.3 587.51 0.00 51.0
06/09/2019 07:00 5.27 168.3 587.51 0.00 47.4
06/09/2019 06:00 5.27 168.3 587.51 0.00 47.8
06/09/2019 05:00 5.27 168.3 587.51 0.00 46.5
06/09/2019 04:00 5.28 170.5 587.50 0.00 47.9
06/09/2019 03:00 5.27 168.3 587.52 0.00 50.3
06/09/2019 02:00 5.28 170.5 587.52 0.00 53.0
06/09/2019 01:00 5.27 168.3 587.52 0.00 53.2
06/09/2019 00:00 5.28 170.5 587.52 0.00 54.4
06/08/2019 23:00 5.28 170.5 587.54 0.00 57.2
06/08/2019 22:00 5.27 168.3 587.53 0.00 61.4
06/08/2019 21:00 5.28 170.5 587.54 0.00 63.9
06/08/2019 20:00 5.28 170.5 587.53 0.00 73.7
06/08/2019 19:00 5.27 168.3 587.55 0.00 76.5
06/08/2019 18:00 5.28 170.5 587.54 0.00 77.4
06/08/2019 17:00 5.28 170.5 587.56 0.00 76.5
06/08/2019 16:00 5.28 170.5 587.53 0.00 75.6
06/08/2019 15:00 5.28 170.5 587.54 0.00 73.3
06/08/2019 14:00 5.28 170.5 587.56 0.00 72.0
06/08/2019 13:00 5.29 172.7 587.57 0.00 70.0
06/08/2019 12:00 5.28 170.5 587.53 0.00 69.0
06/08/2019 11:00 5.28 170.5 587.54 0.00 67.7
06/08/2019 10:00 5.28 170.5 587.53 0.00 65.4
06/08/2019 09:00 5.29 172.7 587.52 0.00 60.7
06/08/2019 08:00 5.28 170.5 587.52 0.00 54.0
06/08/2019 07:00 5.28 170.5 587.53 0.00 50.3
06/08/2019 06:00 5.29 172.7 587.53 0.00 49.6
06/08/2019 05:00 5.29 172.7 587.53 0.00 51.5
06/08/2019 04:00 5.28 170.5 587.53 0.00 51.9
06/08/2019 03:00 5.29 172.7 587.55 0.00 52.8
06/08/2019 02:00 5.28 170.5 587.53 0.00 54.9
06/08/2019 01:00 5.28 170.5 587.53 0.00 56.8
06/08/2019 00:00 5.28 170.5 587.52 0.00 58.3
06/07/2019 23:00 5.29 172.7 587.53 0.00 61.5
06/07/2019 22:00 5.28 170.5 587.52 0.00 64.8
06/07/2019 21:00 5.29 172.7 587.53 0.00 66.5
06/07/2019 20:00 5.28 170.5 587.53 0.00 71.1
06/07/2019 19:00 5.28 170.5 587.53 0.00 79.3
06/07/2019 18:00 5.28 170.5 587.54 0.00 80.0
06/07/2019 17:00 5.28 170.5 587.52 0.00 79.3
06/07/2019 16:00 5.28 170.5 587.52 0.00 78.7
06/07/2019 15:00 5.28 170.5 587.51 0.00 76.5
06/07/2019 14:00 5.27 168.3 587.50 0.00 75.5
06/07/2019 13:00 5.28 170.5 587.50 0.00 72.5
06/07/2019 12:00 5.28 170.5 587.51 0.00 70.7
06/07/2019 11:00 5.27 168.3 587.50 0.00 67.3
06/07/2019 10:00 6.15 412.4 587.49 0.00 60.9
06/07/2019 09:00 6.63 584.6 587.39 0.00 54.9
06/07/2019 08:00 6.57 561.5 587.41 0.00 50.7
06/07/2019 07:00 6.60 573.0 587.42 0.00 48.6
06/07/2019 06:00 6.57 561.5 587.41 0.00 46.3
06/07/2019 05:00 6.64 588.5 587.43 0.00 46.9
06/07/2019 04:00 6.59 569.1 587.43 0.00 48.3
06/07/2019 03:00 6.56 557.7 587.44 0.00 49.4
06/07/2019 02:00 6.62 580.7 587.45 0.00 51.2
06/07/2019 01:00 6.50 535.0 587.47 0.00 53.2
06/07/2019 00:00 6.61 576.8 587.47 0.00 54.4
06/06/2019 23:00 6.63 584.6 587.48 0.00 56.4
06/06/2019 22:00 6.58 565.3 587.49 0.00 59.0
06/06/2019 21:00 6.50 535.0 587.50 0.00 64.0
06/06/2019 20:00 6.59 569.1 587.52 0.00 72.1
06/06/2019 19:00 6.59 569.1 587.53 0.00 74.9
06/06/2019 18:00 6.66 596.3 587.52 0.00 75.7
06/06/2019 17:00 6.66 596.3 587.53 0.00 74.9
06/06/2019 16:00 6.65 592.4 587.52 0.00 73.8
06/06/2019 15:00 6.57 561.5 587.54 0.00 73.0
06/06/2019 14:00 6.54 550.1 587.52 0.00 71.8
06/06/2019 13:00 6.62 580.7 587.54 0.01 69.9
06/06/2019 12:00 6.71 615.9 587.53 0.00 67.3
06/06/2019 11:00 6.57 561.5 587.53 0.00 65.1
06/06/2019 10:00 6.65 592.4 587.52 0.00 64.2
06/06/2019 09:00 5.30 175.0 587.61 0.00 59.2
06/06/2019 08:00 5.30 175.0 587.58 0.01 57.9
06/06/2019 07:00 5.31 177.2 587.60 0.06 57.7
06/06/2019 06:00 5.30 175.0 587.56 0.01 57.6
06/06/2019 05:00 5.30 175.0 587.56 0.02 57.5
06/06/2019 04:00 5.31 177.2 587.51 0.06 57.8
06/06/2019 03:00 5.30 175.0 587.56 0.02 58.4
06/06/2019 02:00 5.30 175.0 587.49 0.05 58.7
06/06/2019 01:00 5.30 175.0 587.50 0.08 59.1
06/06/2019 00:00 5.32 179.5 587.49 0.05 59.6
06/05/2019 23:00 5.29 172.7 587.44 0.22 60.1
06/05/2019 22:00 5.29 172.7 587.42 0.06 60.2
06/05/2019 21:00 5.28 170.5 587.44 0.05 60.9
06/05/2019 20:00 5.28 170.5 587.43 0.02 61.5
06/05/2019 19:00 5.29 172.7 587.42 0.00 63.6
06/05/2019 18:00 5.28 170.5 587.43 0.00 65.0
06/05/2019 17:00 5.29 172.7 587.43 0.00 66.5
06/05/2019 16:00 5.29 172.7 587.41 0.00 70.1
06/05/2019 15:00 5.30 175.0 587.43 0.00 67.8
06/05/2019 14:00 5.29 172.7 587.42 0.00 64.9
06/05/2019 13:00 5.30 175.0 587.40 0.00 60.4
06/05/2019 12:00 5.29 172.7 587.42 0.00 57.6
06/05/2019 11:00 5.29 172.7 587.41 0.00 53.0
06/05/2019 10:00 5.30 175.0 587.42 0.01 50.8
06/05/2019 09:00 5.28 170.5 587.42 0.03 49.9
06/05/2019 08:00 5.29 172.7 587.41 0.01 49.5
06/05/2019 07:00 5.29 172.7 587.39 0.00 49.1
06/05/2019 06:00 5.30 175.0 587.40 0.03 49.0
06/05/2019 05:00 5.29 172.7 587.41 0.09 48.9
06/05/2019 04:00 5.29 172.7 587.36 0.04 48.9
06/05/2019 03:00 5.29 172.7 587.38 0.03 49.0
06/05/2019 02:00 5.29 172.7 587.39 0.00 49.2
06/05/2019 01:00 5.30 175.0 587.41 0.00 50.9
06/05/2019 00:00 5.30 175.0 587.42 0.00 52.1
06/04/2019 23:00 5.29 172.7 587.40 0.00 53.6
06/04/2019 22:00 5.30 175.0 587.43 0.00 55.5
06/04/2019 21:00 5.30 175.0 587.41 0.00 57.7
06/04/2019 20:00 5.29 172.7 587.41 0.00 60.4
06/04/2019 19:00 5.29 172.7 587.39 0.00 61.7
06/04/2019 18:00 5.28 170.5 587.42 0.00 63.3
06/04/2019 17:00 5.29 172.7 587.42 0.00 64.9
06/04/2019 16:00 5.29 172.7 587.41 0.00 63.1
06/04/2019 15:00 5.29 172.7 587.43 0.00 60.6
06/04/2019 14:00 5.29 172.7 587.39 0.00 60.5
06/04/2019 13:00 5.29 172.7 587.43 0.00 58.5
06/04/2019 12:00 -- -- -- -- --
06/04/2019 11:00 -- -- -- -- --
06/04/2019 10:00 -- -- -- -- --
06/04/2019 09:00 -- -- -- -- --
06/04/2019 08:00 -- -- -- -- --
06/04/2019 07:00 -- -- -- -- --
06/04/2019 06:00 -- -- -- -- --
06/04/2019 05:00 -- -- -- -- --
06/04/2019 04:00 -- -- -- -- --
06/04/2019 03:00 -- -- -- -- --
06/04/2019 02:00 -- -- -- -- --